Location: Go�ngahuizen
(53.0821°N, 5.8849°E)
Time: 13:19:57
(UTC+00:00)

Cosmos 1766 Rocket - Visible Passes

Search period start: 06 August 2020 00:00
Search period end: 16 August 2020 00:00
Orbit: 606 x 632 km, 82.5° (Epoch: 06 August)

Date Brightness Start Highest point End Pass type
(mag) Time Alt. Az. Time Alt. Az. Time Alt. Az.
06 Aug 6.6 20:35:00 10° WSW 20:38:10 19° WNW 20:41:22 10° NNW visible
07 Aug 7.0 20:54:03 10° W 20:55:55 12° WNW 20:57:47 10° NNW visible
10 Aug 6.7 20:06:42 10° WSW 20:09:48 18° WNW 20:12:54 10° NNW visible
11 Aug 7.2 20:25:53 10° WNW 20:27:33 12° NW 20:29:13 10° NW visible
12 Aug 7.6 03:11:54 10° NE 03:12:05 10° NE 03:12:15 10° NE visible
13 Aug 7.0 03:27:10 10° NNE 03:29:51 16° ENE 03:32:31 10° E visible
14 Aug 6.9 19:38:26 10° WSW 19:41:26 17° WNW 19:44:26 10° NNW visible
15 Aug 7.5 19:57:45 10° WNW 19:59:10 11° NW 20:00:36 10° NW visible
